Weather History for KFOA - July, 2013

Change the Weather History Date:

Friday, July 19, 2013

  Actual Average (KEVV) Record (KEVV)
Temperature  
Mean Temperature 82 °F 78 °F  
Max Temperature 90 °F 89 °F 103 °F (1930)
Min Temperature 73 °F 68 °F 56 °F (1984)
Degree Days  
Heating Degree Days 0 0  
Month to date heating degree days 0  
Since 1 June heating degree days 6  
Since 1 July heating degree days 0  
Cooling Degree Days 16 13  
Month to date cooling degree days 247  
Year to date cooling degree days 680  
Since 1 June cooling degree days 545  
Growing Degree Days 32 (Base 50)    
Moisture  
Dew Point 71 °F    
Average Humidity 71    
Maximum Humidity 100    
Minimum Humidity 49    
Precipitation  
Precipitation 0.00 in 0.13 in 1.45 in (1921)
Month to date precipitation 2.50  
Year to date precipitation 26.52  
Snow  
Snow 0.00 in 0.00 in - ()
Month to date snowfall 0.0  
Since 1 June snowfall 0.0  
Since 1 July snowfall 0.0  
Snow Depth -    
Sea Level Pressure  
Sea Level Pressure 29.99 in    
Wind  
Wind Speed 6 mph (SSW)    
Max Wind Speed 12 mph    
Max Gust Speed 16 mph    
Visibility 8 miles    
Events      
T = Trace of Precipitation, MM = Missing Value Source: NWS Daily Summary

Daily Weather History Graph

Daily Weather History Graph

Search for Another Location

Airport or City:

Trip Planner

Search our weather history database for the weather conditions in past years. The results will help you decide how hot, cold, wet, or windy it might be!

Date:

Astronomy

Jul. 19, 2013 Rise Set
Actual Time 5:44 AM CDT 8:15 PM CDT
Civil Twilight 5:13 AM CDT 8:45 PM CDT
Nautical Twilight 4:35 AM CDT 9:23 PM CDT
Astronomical Twilight 3:53 AM CDT 10:05 PM CDT
Moon 5:17 PM CDT (7/19) 2:25 AM CDT (7/19)
Length of Visible Light 15h 31m
Length of Day
14h 30m
Waxing Gibbous, 87% of the Moon is Illuminated
Jul 19
Waxing Gibbous
Jul 22
Full
Jul 29
Last Quarter
Aug 6
New
Aug 14
First Quarter

Hourly Weather History & Observations

Time (CDT) Temp. Heat Index Dew Point Humidity Pressure Visibility Wind Dir Wind Speed Gust Speed Precip Events Conditions
12:12 AM 77.0 °F - 73.4 °F 89% 30.05 in 5.0 mi SW 3.5 mph - N/A   Clear
12:15 AM 77.4 °F - 74.3 °F 90% 30.04 in 5.0 mi SW 3.5 mph - N/A   Clear
12:35 AM 77.2 °F - 74.3 °F 91% 30.04 in 5.0 mi WSW 3.5 mph - N/A   Clear
12:55 AM 76.6 °F - 73.8 °F 91% 30.04 in 5.0 mi SW 4.6 mph - N/A   Clear
1:15 AM 76.1 °F - 73.9 °F 93% 30.04 in 4.0 mi SW 3.5 mph - N/A   Clear
1:35 AM 75.7 °F - 73.8 °F 94% 30.03 in 4.0 mi SW 4.6 mph - N/A   Clear
1:55 AM 75.7 °F - 73.8 °F 94% 30.03 in 4.0 mi SW 3.5 mph - N/A   Clear
2:15 AM 75.7 °F - 73.9 °F 94% 30.03 in 3.0 mi SW 3.5 mph - N/A   Clear
2:35 AM 75.7 °F - 73.9 °F 94% 30.03 in 3.0 mi SSW 4.6 mph - N/A   Clear
3:15 AM 75.7 °F - 73.6 °F 93% 30.03 in 4.0 mi SW 4.6 mph - N/A   Clear
3:35 AM 75.7 °F - 73.4 °F 92% 30.03 in 5.0 mi SW 5.8 mph - N/A   Clear
3:55 AM 75.0 °F - 72.9 °F 93% 30.03 in 4.0 mi SSW 3.5 mph - N/A   Clear
4:15 AM 74.3 °F - 72.5 °F 94% 30.03 in 4.0 mi South 3.5 mph - N/A   Clear
5:13 AM 75.2 °F - 73.4 °F 94% 30.03 in 3.0 mi SW 3.5 mph - N/A   Clear
5:33 AM 73.4 °F - 73.4 °F 100% 30.03 in 2.5 mi SSW 3.5 mph - N/A   Clear
5:35 AM 73.9 °F - 72.5 °F 95% 30.03 in 2.5 mi SSW 4.6 mph - N/A   Clear
6:15 AM 73.9 °F - 72.5 °F 95% 30.03 in 2.0 mi South 3.5 mph - N/A   Clear
6:35 AM 73.9 °F - 72.5 °F 95% 30.03 in 2.5 mi South 3.5 mph - N/A   Clear
7:12 AM 75.2 °F - 73.4 °F 94% 30.04 in 4.0 mi South 5.8 mph - N/A   Clear
7:35 AM 77.2 °F - 73.2 °F 88% 30.04 in 5.0 mi SSW 6.9 mph - N/A   Clear
7:55 AM 78.3 °F - 73.0 °F 84% 30.04 in 7.0 mi SW 6.9 mph - N/A   Clear
8:15 AM 79.2 °F - 72.7 °F 80% 30.05 in 7.0 mi SSW 8.1 mph - N/A   Clear
8:35 AM 80.4 °F 84.7 °F 72.7 °F 77% 30.04 in 7.0 mi SSW 6.9 mph - N/A   Clear
8:55 AM 81.5 °F 86.1 °F 72.0 °F 73% 30.04 in 10.0 mi SW 5.8 mph - N/A   Clear
9:15 AM 82.8 °F 87.4 °F 71.1 °F 68% 30.04 in 10.0 mi SW 8.1 mph - N/A   Clear
9:35 AM 83.7 °F 88.9 °F 71.6 °F 67% 30.04 in 10.0 mi WSW 5.8 mph - N/A   Clear
9:55 AM 84.4 °F 89.7 °F 71.4 °F 65% 30.04 in 10.0 mi WSW 8.1 mph - N/A   Clear
10:15 AM 84.9 °F 90.1 °F 70.9 °F 63% 30.04 in 10.0 mi SW 11.5 mph - N/A   Clear
10:35 AM 85.5 °F 90.1 °F 70.3 °F 60% 30.04 in 10.0 mi WSW 10.4 mph 16.1 mph N/A   Clear
10:55 AM 86.0 °F 90.7 °F 70.2 °F 59% 30.04 in 10.0 mi WSW 9.2 mph - N/A   Clear
11:15 AM 86.7 °F 91.4 °F 69.6 °F 57% 30.04 in 10.0 mi WSW 10.4 mph - N/A   Clear
11:35 AM 87.6 °F 93.1 °F 70.5 °F 57% 30.03 in 10.0 mi SW 9.2 mph - N/A   Clear
11:55 AM 88.0 °F 93.4 °F 70.3 °F 56% 30.03 in 10.0 mi WSW 6.9 mph - N/A   Clear
12:15 PM 88.0 °F 92.5 °F 69.4 °F 54% 30.02 in 10.0 mi SW 6.9 mph - N/A   Clear
12:35 PM 89.1 °F 95.0 °F 71.1 °F 55% 30.02 in 10.0 mi SSW 9.2 mph - N/A   Clear
12:55 PM 89.8 °F 95.6 °F 70.5 °F 53% 30.01 in 10.0 mi SW 10.4 mph - N/A   Clear
1:15 PM 89.8 °F 94.6 °F 69.6 °F 51% 30.00 in 10.0 mi SSW 8.1 mph - N/A   Clear
1:35 PM 89.8 °F 95.6 °F 70.7 °F 53% 29.99 in 10.0 mi SW 10.4 mph - N/A   Clear
1:55 PM 89.8 °F 96.0 °F 71.1 °F 54% 29.99 in 10.0 mi SSW 10.4 mph - N/A   Clear
2:15 PM 90.3 °F 94.7 °F 69.1 °F 49% 29.98 in 10.0 mi SSW 11.5 mph - N/A   Clear
2:35 PM 90.0 °F 95.4 °F 70.3 °F 52% 29.97 in 10.0 mi SSW 10.4 mph - N/A   Clear
2:55 PM 90.3 °F 96.7 °F 71.2 °F 53% 29.96 in 10.0 mi SSW 11.5 mph - N/A   Clear
3:15 PM 90.1 °F 96.3 °F 71.1 °F 53% 29.94 in 10.0 mi South 9.2 mph - N/A   Clear
3:35 PM 90.5 °F 95.5 °F 69.4 °F 50% 29.94 in 10.0 mi SSW 9.2 mph 16.1 mph N/A   Clear
3:55 PM 90.7 °F 96.4 °F 70.5 °F 51% 29.94 in 10.0 mi SSW 8.1 mph - N/A   Clear
4:15 PM 90.0 °F 95.0 °F 69.4 °F 51% 29.93 in 10.0 mi SSW 9.2 mph - N/A   Clear
4:35 PM 90.0 °F 95.4 °F 70.0 °F 52% 29.92 in 10.0 mi SSW 11.5 mph - N/A   Clear
4:55 PM 90.5 °F 95.5 °F 69.3 °F 50% 29.92 in 10.0 mi SSW 8.1 mph - N/A   Clear
5:15 PM 89.8 °F 94.2 °F 69.1 °F 50% 29.92 in 10.0 mi SSW 8.1 mph - N/A   Clear
5:35 PM 89.8 °F 94.2 °F 69.1 °F 50% 29.91 in 10.0 mi SSW 9.2 mph - N/A   Clear
5:55 PM 89.8 °F 95.6 °F 70.7 °F 53% 29.91 in 10.0 mi SSW 6.9 mph - N/A   Clear
6:15 PM 88.9 °F 94.7 °F 70.7 °F 55% 29.91 in 10.0 mi SSW 8.1 mph - N/A   Clear
6:35 PM 88.2 °F 93.7 °F 70.7 °F 56% 29.92 in 10.0 mi SW 6.9 mph - N/A   Clear
6:55 PM 87.6 °F 94.3 °F 72.0 °F 60% 29.92 in 10.0 mi SSW 4.6 mph - N/A   Clear
7:15 PM 86.2 °F 92.2 °F 72.0 °F 62% 29.92 in 10.0 mi SSW 5.8 mph - N/A   Clear
7:35 PM 84.7 °F 90.4 °F 71.8 °F 65% 29.92 in 10.0 mi South 6.9 mph - N/A   Clear
7:55 PM 83.7 °F 88.6 °F 71.1 °F 66% 29.92 in 10.0 mi SSW 6.9 mph - N/A   Clear
8:15 PM 82.8 °F 87.4 °F 71.4 °F 68% 29.92 in 10.0 mi SSW 5.8 mph - N/A   Clear
8:35 PM 81.9 °F 86.2 °F 71.1 °F 70% 29.92 in 10.0 mi SSW 5.8 mph - N/A   Clear
8:55 PM 81.0 °F 85.1 °F 71.4 °F 73% 29.92 in 10.0 mi South 6.9 mph - N/A   Clear
9:15 PM 81.0 °F 84.9 °F 71.1 °F 72% 29.93 in 10.0 mi SSW 5.8 mph - N/A   Clear
9:35 PM 79.7 °F - 70.7 °F 74% 29.94 in 10.0 mi SSW 5.8 mph - N/A   Clear
9:55 PM 79.2 °F - 70.2 °F 74% 29.94 in 10.0 mi South 5.8 mph - N/A   Clear
10:15 PM 79.2 °F - 70.2 °F 74% 29.94 in 10.0 mi South 5.8 mph - N/A   Clear
10:35 PM 79.2 °F - 70.7 °F 75% 29.94 in 10.0 mi SSW 4.6 mph - N/A   Clear
10:55 PM 77.9 °F - 70.0 °F 76% 29.94 in 10.0 mi SSW 4.6 mph - N/A   Clear
11:15 PM 77.4 °F - 70.2 °F 78% 29.94 in 10.0 mi SSW 5.8 mph - N/A   Clear
11:35 PM 77.4 °F - 70.2 °F 78% 29.94 in 10.0 mi SSW 4.6 mph - N/A   Clear
11:55 PM 76.6 °F - 70.3 °F 81% 29.94 in 10.0 mi SSW 3.5 mph - N/A   Clear